Погода в Тамбове

Погода в Тамбове : погода сейчас, прогноз погоды и архив. Всё, что Вы хотите узнать о погоде в Тамбове!

Поиск расширенной информации на нашем сайте:

Другие новости

Новости СМИ2

Главная страница сайта

Новости сайта

03.07.2017

Напоминаем, что на нашем специализированном сайте Метеоцентр.Азия вы можете получить высокодетализированные автоматические прогнозы погоды по пунктам России, СНГ и мира в авиационном формате (включающие направление и скорость ветра, видимость, явления погоды, количество и форму облачности, нижнюю и верхнюю границу облачности).

Рекомендуем: Помогите купить гироскутер недорого.

Погода в Тамбове - сегодня

Время (UTC), дата Ветер
(°,м/с) 
Видим.   Явления Облачность Т
(°С)
Тd
(°С)
f(%) Тe
(°С)
Pmin
(гПа)
dP
(гПа)
Po
(мм)
O2
(г/м3)
Тmin Tmax R s Состояние
почвы
06 19.08.17 120 (ЮВ) 10 км    ясно 
+23.7 +13.4 52 +30  1024.8  0.4  757  278           
09 19.08.17 340 (С) 10 км    4/4 1000 м 
[Cu hum]
+29 +8.2 27 +29  1024.2  -0.4  757  274           
12 19.08.17 340 (С) 10 км    4/4 1000 м 
[Cu hum]
+29.3 +8.1 26 +29  1023.5  -0.7  756  274           
15 19.08.17 060 (СВ) 10 км    3/0 средняя 
[Ac trans]
+27.7 +8.2 29 +28  1023.2  -0.3  756  275    +29.5       
18 19.08.17 330 (СЗ) 10 км    4/0 средняя 
[Ac trans]
+20.4 +9.5 50 +21  1024  0.4  756  282           
21 19.08.17 тихо ()   10 км    4/0 средняя 
[Ac trans]
+15.3 +10.4 73 +17  1024.6  0.3  756  287           
00 20.08.17 340 (С) 10 км    3/0 средняя 
[Ac trans]
+12.5 +9.9 84 +14  1024.7  756  290           
03 20.08.17 тихо ()   10 км    3/0 средняя 
[Ac trans]
+10.8 +9.4 91 +11  1025.2  0.4  757  292  +10.3         
06 20.08.17 090 (В) 10 км    ясно 
+22.6 +12.2 52 +27  1025  0.4  757  279           
09 20.08.17 170 (Ю) 10 км    ясно 
+27.7 +8.8 30 +28  1024.2  -0.5  757  275           
12 20.08.17 100 (В) 10 км    3/0 средняя 
[Ac trans]
+29.4 +10.2 30 +31  1023.2  -1  756  273           
15 20.08.17 090 (В) 10 км    3/0 средняя 
[Ac trans]
+28 +9.5 31 +28  1022.4  -0.7  755  274    +29.5       
18 20.08.17 360 (С) 10 км    ясно 
+19.1 +11.1 60 +23  1022.9  755  282           
21 20.08.17 нст () 10 км    ясно 
+14.5 +9.9 74 +17  1022.7  -0.5  755  287           
00 21.08.17 800 () 10 км    ясно 
+18.2 +9.9 58 +21  1021.9  -0.5  755  283           
03 21.08.17 тихо ()   10 км    ясно 
+13.6 +10.2 80 +15  1022.3  755  288  +12.7         
06 21.08.17 120 (ЮВ) 10 км    ясно 
+22.9 +12 50 +27  1021.7  755  278           
09 21.08.17 170 (Ю) 10 км    ясно 
+29.2 +11.9 34 +33  1020.9  -0.5  754  272           
12 21.08.17 130 (ЮВ) 10 км    ясно 
+31.7 +9.5 25 +32  1019  -1.7  753  270           
15 21.08.17 090 (В) 10 км    ясно 
+29.6 +10.3 30 +31  1017.8  -1.3  752  272    +32       
18 21.08.17 070 (В) 10 км    ясно 
+22.6 +11.3 49 +25  1018.2  752  278           
21 21.08.17 100 (В) 10 км    ясно 
+21.5 +10.7 50 +24  1018.5  0.2  752  279           
00 22.08.17 140 (ЮВ) 10 км    ясно 
+19.6 +10.4 55 +23  1018.2  -0.3  752  281           
03 22.08.17 140 (ЮВ) 10 км    ясно 
+16.8 +10 64 +19  1018.4  752  284  +15.4         
06 22.08.17 100 (В) 10 км    6/0 верхняя 
[Ci sp]
+23.9 +13 50 +29  1017.4  -0.6  752  276           
Время (UTC), дата Ветер
(°,м/с) 
Видим.   Явления Облачность Т
(°С)
Тd
(°С)
f(%) Тe
(°С)
Pmin
(гПа)
dP
(гПа)
Po
(мм)
O2
(г/м3)
Тmin Tmax R s Состояние
почвы

Для получения пояснительной информации подведите курсор к названию столбца.

ПОГОДА в Тамбове - архив

Всё, что Вы хотите узнать о погоде в Тамбове - удобно и подробно!

Выберите нужную дату (начиная с 1 января 2015* года) и нажмите кнопку "Найти".
Будут отображены архивные сводки погоды по пункту Тамбов, начиная с указанной даты.


Отображать данные в формате CSV (для использования в таблицах Excel)


Внимание! Наш архив погоды предназначен исключительно для личного некоммерческого использования в познавательных целях. Если Вам необходимы официальные справки о состоянии погоды (для производственных, юридических, коммерческих и т.п. целей), обращайтесь в органы Росгидромета.

*Примечание: данная дата относится к архиву по метеостанциям СССР (Россия, СНГ, Балтия).
Архив по метеостанциям Зарубежной Европы и Азии (кроме Китая) хранится 10 дней, по другим регионам земного шара (Китай, Африка, Америка, Австралия, Океания) - 1 день.

Тамбов - район местоположения метеостанции


Название, широта, долгота, высота метеостанции:
Тамбов 52.8°ш. 41.3°д. 128 м над ур. моря [Российская Федерация]

Дополнительная информация

В oтличие oт бoльшинства пoгoдных сайтoв мы публикуем пoдрoбную метеoинфoрмацию в детальнoм прoфессиoнальнoм фoрмате.

Характеристики температуры и влажнoсти вoздуха измеряются на высoте 2 м в тени вдали oт зданий и деревьев.
Скoрoсть ветра измеряется на высoте 10 м (на урoвне рoста челoвека скoрoсть ветра ниже в 1.5-2 раза). Если метеoстанция нахoдится в гoрoде или в лесу, тo скoрoсть ветра занижена на 2-4 м/с пo сравнению с oткрытым местoм. Скoрoсть ветра над акватoриями крупных рек и oзёр, а также на вершинах хoлмoв на 2-5 м/с выше, чем в oбычных услoвиях.
Атмoсфернoе давление в разных тoчках местнoсти мoжет значительнo oтличаться oт давления на метеoстанции, в зависимoсти oт услoвий рельефа (при пoдъёме на 10 м давление пoнижается примернo на 1 мм рт.ст.).